Time,TemperatureF,DewpointF,PressureIn,WindDirection,WindDirectionDegrees,WindSpeedMPH,WindSpeedGustMPH,Humidity,HourlyPrecipIn,Conditions,Clouds,dailyrainin,SoftwareType,DateUTC
2017-04-25 00:04:00,39.2,36.2,29.88,SSW,202,2.7,-999.0,89,-99.99,,,0.00,,2017-04-25 06:04:00,
2017-04-25 00:10:00,39.4,36.4,29.88,SSW,202,2.2,-999.0,89,-99.99,,,0.00,,2017-04-25 06:10:00,
2017-04-25 00:14:00,39.4,36.4,29.88,SSW,202,2.7,-999.0,89,-99.99,,,0.00,,2017-04-25 06:14:00,
2017-04-25 00:19:00,39.2,36.2,29.88,WNW,292,0.0,-999.0,89,-99.99,,,0.00,,2017-04-25 06:19:00,
2017-04-25 00:24:00,39.2,36.5,29.88,SSE,157,0.0,-999.0,90,-99.99,,,0.00,,2017-04-25 06:24:00,
2017-04-25 00:29:00,39.2,36.5,29.88,South,180,0.0,-999.0,90,-99.99,,,0.00,,2017-04-25 06:29:00,
2017-04-25 00:34:00,39.2,36.5,29.88,SSW,202,0.0,-999.0,90,-99.99,,,0.00,,2017-04-25 06:34:00,
2017-04-25 00:39:00,39.0,36.3,29.89,South,180,4.2,-999.0,90,-99.99,,,0.00,,2017-04-25 06:39:00,
2017-04-25 00:45:00,39.0,36.3,29.89,West,270,2.2,-999.0,90,-99.99,,,0.00,,2017-04-25 06:45:00,
2017-04-25 00:50:00,38.8,36.1,29.89,West,270,0.0,-999.0,90,-99.99,,,0.00,,2017-04-25 06:50:00,
2017-04-25 00:55:00,38.8,36.1,29.89,SW,225,0.0,-999.0,90,-99.99,,,0.00,,2017-04-25 06:55:00,
2017-04-25 01:01:00,38.8,36.1,29.89,West,270,0.0,-999.0,90,-99.99,,,0.00,,2017-04-25 07:01:00,
2017-04-25 01:06:00,38.8,36.4,29.89,SW,225,0.0,-999.0,91,-99.99,,,0.00,,2017-04-25 07:06:00,
2017-04-25 01:11:00,38.8,36.4,29.89,West,270,1.7,-999.0,91,-99.99,,,0.00,,2017-04-25 07:11:00,
2017-04-25 01:16:00,38.8,36.4,29.89,West,270,0.0,-999.0,91,-99.99,,,0.00,,2017-04-25 07:16:00,
2017-04-25 01:21:00,38.8,36.4,29.89,WSW,247,0.0,-999.0,91,-99.99,,,0.00,,2017-04-25 07:21:00,
2017-04-25 01:26:00,38.8,36.4,29.89,SSE,157,0.0,-999.0,91,-99.99,,,0.00,,2017-04-25 07:26:00,
2017-04-25 01:32:00,38.7,36.3,29.89,ESE,112,0.0,-999.0,91,-99.99,,,0.00,,2017-04-25 07:32:00,
2017-04-25 01:37:00,38.7,36.3,29.90,South,180,0.0,-999.0,91,-99.99,,,0.00,,2017-04-25 07:37:00,
2017-04-25 01:42:00,38.5,36.1,29.90,West,270,0.0,-999.0,91,-99.99,,,0.00,,2017-04-25 07:42:00,
2017-04-25 01:47:00,38.5,36.1,29.90,West,270,0.0,-999.0,91,-99.99,,,0.01,,2017-04-25 07:47:00,
2017-04-25 01:52:00,38.5,36.4,29.90,WSW,247,0.0,-999.0,92,-99.99,,,0.01,,2017-04-25 07:52:00,
2017-04-25 01:58:00,38.5,36.4,29.90,SSW,202,0.0,-999.0,92,-99.99,,,0.01,,2017-04-25 07:58:00,
2017-04-25 02:04:00,38.5,36.4,29.90,SW,225,0.0,-999.0,92,-99.99,,,0.01,,2017-04-25 08:04:00,
2017-04-25 02:09:00,38.5,36.4,29.90,SSW,202,0.0,-999.0,92,-99.99,,,0.01,,2017-04-25 08:09:00,
2017-04-25 02:14:00,38.3,36.2,29.90,WSW,247,0.0,-999.0,92,-99.99,,,0.01,,2017-04-25 08:14:00,
2017-04-25 02:21:00,38.3,36.2,29.90,WSW,247,0.0,-999.0,92,-99.99,,,0.01,,2017-04-25 08:21:00,
2017-04-25 02:26:00,38.3,36.2,29.90,West,270,0.0,-999.0,92,-99.99,,,0.01,,2017-04-25 08:26:00,
2017-04-25 02:33:00,38.3,36.2,29.90,SW,225,0.0,-999.0,92,-99.99,,,0.01,,2017-04-25 08:33:00,
2017-04-25 02:41:00,37.9,35.8,29.90,WSW,247,0.0,-999.0,92,-99.99,,,0.01,,2017-04-25 08:41:00,
2017-04-25 02:47:00,37.8,35.7,29.90,WSW,247,0.0,-999.0,92,-99.99,,,0.01,,2017-04-25 08:47:00,
2017-04-25 02:52:00,37.8,35.7,29.90,SSE,157,0.0,-999.0,92,-99.99,,,0.01,,2017-04-25 08:52:00,
2017-04-25 02:58:00,37.6,35.5,29.91,SW,225,0.0,-999.0,92,-99.99,,,0.01,,2017-04-25 08:58:00,
2017-04-25 03:03:00,37.6,35.5,29.91,SW,225,0.0,-999.0,92,-99.99,,,0.01,,2017-04-25 09:03:00,
2017-04-25 03:08:00,37.4,35.3,29.91,West,270,2.7,-999.0,92,-99.99,,,0.01,,2017-04-25 09:08:00,
2017-04-25 03:13:00,37.6,35.8,29.91,West,270,3.2,-999.0,93,-99.99,,,0.01,,2017-04-25 09:13:00,
2017-04-25 03:23:00,37.6,35.8,29.91,WSW,247,1.7,-999.0,93,-99.99,,,0.01,,2017-04-25 09:23:00,
2017-04-25 03:29:00,37.8,36.0,29.91,West,270,1.7,-999.0,93,-99.99,,,0.01,,2017-04-25 09:29:00,
2017-04-25 03:34:00,37.8,36.0,29.91,West,270,0.0,-999.0,93,-99.99,,,0.01,,2017-04-25 09:34:00,
2017-04-25 03:40:00,37.8,36.0,29.91,WSW,247,0.0,-999.0,93,-99.99,,,0.01,,2017-04-25 09:40:00,
2017-04-25 03:45:00,37.9,36.1,29.91,SSW,202,0.0,-999.0,93,-99.99,,,0.01,,2017-04-25 09:45:00,
2017-04-25 03:50:00,37.9,36.1,29.91,South,180,0.0,-999.0,93,-99.99,,,0.01,,2017-04-25 09:50:00,
2017-04-25 03:55:00,37.9,36.1,29.91,SW,225,0.0,-999.0,93,-99.99,,,0.01,,2017-04-25 09:55:00,
2017-04-25 04:01:00,37.9,36.1,29.91,West,270,0.0,-999.0,93,-99.99,,,0.01,,2017-04-25 10:01:00,
2017-04-25 04:06:00,37.9,36.1,29.91,WNW,292,0.0,-999.0,93,-99.99,,,0.01,,2017-04-25 10:06:00,
2017-04-25 04:11:00,37.9,36.1,29.92,SW,225,1.7,-999.0,93,-99.99,,,0.01,,2017-04-25 10:11:00,
2017-04-25 04:17:00,38.1,36.3,29.92,West,270,1.7,-999.0,93,-99.99,,,0.01,,2017-04-25 10:17:00,
2017-04-25 04:23:00,38.3,36.5,29.92,SSW,202,1.7,-999.0,93,-99.99,,,0.01,,2017-04-25 10:23:00,
2017-04-25 04:28:00,38.3,36.5,29.92,West,270,2.7,-999.0,93,-99.99,,,0.01,,2017-04-25 10:28:00,
2017-04-25 04:33:00,38.3,36.5,29.92,SSE,157,1.7,-999.0,93,-99.99,,,0.01,,2017-04-25 10:33:00,
2017-04-25 04:38:00,38.3,36.5,29.92,West,270,4.2,-999.0,93,-99.99,,,0.01,,2017-04-25 10:38:00,
2017-04-25 04:43:00,38.5,36.4,29.92,South,180,5.3,-999.0,92,-99.99,,,0.01,,2017-04-25 10:43:00,
2017-04-25 04:48:00,38.8,35.6,29.92,South,180,5.8,-999.0,88,-99.99,,,0.02,,2017-04-25 10:48:00,
2017-04-25 04:53:00,38.8,35.6,29.92,SSW,202,4.7,-999.0,88,-99.99,,,0.03,,2017-04-25 10:53:00,
2017-04-25 04:58:00,38.5,35.8,29.92,West,270,1.7,-999.0,90,-99.99,,,0.04,,2017-04-25 10:58:00,
2017-04-25 05:06:00,38.5,35.8,29.92,ENE,67,0.0,-999.0,90,-99.99,,,0.04,,2017-04-25 11:06:00,
2017-04-25 05:11:00,38.3,35.9,29.93,South,180,0.0,-999.0,91,-99.99,,,0.04,,2017-04-25 11:11:00,
2017-04-25 05:16:00,38.3,35.9,29.93,SSW,202,1.7,-999.0,91,-99.99,,,0.04,,2017-04-25 11:16:00,
2017-04-25 05:21:00,38.5,36.1,29.93,WSW,247,2.2,-999.0,91,-99.99,,,0.04,,2017-04-25 11:21:00,
2017-04-25 05:25:00,38.5,36.1,29.93,WSW,247,3.2,-999.0,91,-99.99,,,0.04,,2017-04-25 11:25:00,
2017-04-25 05:30:00,38.5,36.1,29.93,SW,225,0.0,-999.0,91,-99.99,,,0.04,,2017-04-25 11:30:00,
2017-04-25 05:35:00,38.5,36.1,29.93,WSW,247,0.0,-999.0,91,-99.99,,,0.04,,2017-04-25 11:35:00,
2017-04-25 05:40:00,38.5,36.1,29.93,East,90,0.0,-999.0,91,-99.99,,,0.04,,2017-04-25 11:40:00,
2017-04-25 05:45:00,38.5,36.4,29.93,ENE,67,2.2,-999.0,92,-99.99,,,0.04,,2017-04-25 11:45:00,
2017-04-25 05:51:00,38.5,36.4,29.93,NE,45,2.7,-999.0,92,-99.99,,,0.04,,2017-04-25 11:51:00,
2017-04-25 05:56:00,38.5,36.4,29.93,SE,135,0.0,-999.0,92,-99.99,,,0.04,,2017-04-25 11:56:00,
2017-04-25 06:01:00,38.3,36.2,29.94,SSW,202,0.0,-999.0,92,-99.99,,,0.04,,2017-04-25 12:01:00,
2017-04-25 06:07:00,38.1,36.0,29.94,SW,225,0.0,-999.0,92,-99.99,,,0.04,,2017-04-25 12:07:00,
2017-04-25 06:12:00,38.1,36.0,29.94,West,270,1.1,-999.0,92,-99.99,,,0.04,,2017-04-25 12:12:00,
2017-04-25 06:18:00,37.9,35.8,29.94,WSW,247,2.2,-999.0,92,-99.99,,,0.04,,2017-04-25 12:18:00,
2017-04-25 06:23:00,37.9,35.8,29.93,WNW,292,2.2,-999.0,92,-99.99,,,0.04,,2017-04-25 12:23:00,
2017-04-25 06:28:00,37.9,35.8,29.93,SSE,157,0.0,-999.0,92,-99.99,,,0.04,,2017-04-25 12:28:00,
2017-04-25 06:33:00,37.9,35.8,29.93,West,270,1.1,-999.0,92,-99.99,,,0.04,,2017-04-25 12:33:00,
2017-04-25 06:34:00,37.9,35.8,29.93,West,270,0.0,-999.0,92,-99.99,,,0.04,,2017-04-25 12:34:00,
2017-04-25 06:40:00,37.8,35.7,29.93,ENE,67,2.2,-999.0,92,-99.99,,,0.04,,2017-04-25 12:40:00,
2017-04-25 06:45:00,37.8,35.7,29.93,SSE,157,0.0,-999.0,92,-99.99,,,0.04,,2017-04-25 12:45:00,
2017-04-25 06:50:00,37.8,35.7,29.94,SE,135,0.0,-999.0,92,-99.99,,,0.04,,2017-04-25 12:50:00,
2017-04-25 06:55:00,37.8,35.7,29.94,NE,45,0.0,-999.0,92,-99.99,,,0.04,,2017-04-25 12:55:00,
2017-04-25 07:00:00,37.8,35.7,29.94,East,90,0.0,-999.0,92,-99.99,,,0.04,,2017-04-25 13:00:00,
2017-04-25 07:06:00,37.9,35.8,29.94,East,90,1.1,-999.0,92,-99.99,,,0.04,,2017-04-25 13:06:00,
2017-04-25 07:11:00,37.9,35.8,29.94,East,90,3.2,-999.0,92,-99.99,,,0.04,,2017-04-25 13:11:00,
2017-04-25 07:16:00,38.1,36.0,29.94,SSE,157,2.7,-999.0,92,-99.99,,,0.04,,2017-04-25 13:16:00,
2017-04-25 07:21:00,38.3,36.2,29.94,SSW,202,0.0,-999.0,92,-99.99,,,0.04,,2017-04-25 13:21:00,
2017-04-25 07:26:00,38.3,36.2,29.94,West,270,2.2,-999.0,92,-99.99,,,0.04,,2017-04-25 13:26:00,
2017-04-25 07:31:00,38.3,36.2,29.94,SW,225,0.0,-999.0,92,-99.99,,,0.04,,2017-04-25 13:31:00,
2017-04-25 07:36:00,38.3,36.2,29.95,SW,225,0.0,-999.0,92,-99.99,,,0.04,,2017-04-25 13:36:00,
2017-04-25 07:42:00,38.5,36.4,29.95,SW,225,0.0,-999.0,92,-99.99,,,0.04,,2017-04-25 13:42:00,
2017-04-25 07:47:00,38.8,36.7,29.95,South,180,0.0,-999.0,92,-99.99,,,0.04,,2017-04-25 13:47:00,
2017-04-25 07:53:00,39.0,36.9,29.95,ESE,112,0.0,-999.0,92,-99.99,,,0.04,,2017-04-25 13:53:00,
2017-04-25 08:33:00,40.1,37.1,29.96,ESE,112,0.0,-999.0,89,-99.99,,,0.04,,2017-04-25 14:33:00,
2017-04-25 08:39:00,40.3,37.3,29.96,West,270,2.2,-999.0,89,-99.99,,,0.04,,2017-04-25 14:39:00,
2017-04-25 08:45:00,40.5,37.5,29.96,South,180,2.2,-999.0,89,-99.99,,,0.04,,2017-04-25 14:45:00,
2017-04-25 08:50:00,40.6,37.6,29.96,SSE,157,0.0,-999.0,89,-99.99,,,0.04,,2017-04-25 14:50:00,
2017-04-25 08:55:00,41.0,37.7,29.96,NE,45,2.7,-999.0,88,-99.99,,,0.04,,2017-04-25 14:55:00,
2017-04-25 09:01:00,41.2,37.3,29.95,ESE,112,6.8,-999.0,86,-99.99,,,0.04,,2017-04-25 15:01:00,
2017-04-25 09:21:00,43.2,39.0,29.95,NNW,337,0.0,-999.0,85,-99.99,,,0.04,,2017-04-25 15:21:00,
2017-04-25 09:26:00,44.1,39.0,29.97,South,180,2.2,-999.0,82,-99.99,,,0.04,,2017-04-25 15:26:00,
2017-04-25 09:32:00,44.4,38.9,29.97,NNW,337,3.7,-999.0,81,-99.99,,,0.04,,2017-04-25 15:32:00,
2017-04-25 09:37:00,44.8,38.7,29.96,West,270,1.1,-999.0,79,-99.99,,,0.04,,2017-04-25 15:37:00,
2017-04-25 09:44:00,44.2,39.1,29.96,South,180,3.7,-999.0,82,-99.99,,,0.04,,2017-04-25 15:44:00,
2017-04-25 10:12:00,46.2,38.7,29.97,SE,135,4.7,-999.0,75,-99.99,,,0.04,,2017-04-25 16:12:00,
2017-04-25 10:17:00,45.7,38.6,29.97,WSW,247,3.2,-999.0,76,-99.99,,,0.04,,2017-04-25 16:17:00,
2017-04-25 10:23:00,46.0,38.9,29.97,WSW,247,0.0,-999.0,76,-99.99,,,0.04,,2017-04-25 16:23:00,
2017-04-25 10:28:00,46.6,39.8,29.97,East,90,2.2,-999.0,77,-99.99,,,0.04,,2017-04-25 16:28:00,
2017-04-25 10:33:00,46.4,39.6,29.97,SSE,157,2.2,-999.0,77,-99.99,,,0.04,,2017-04-25 16:33:00,
2017-04-25 10:39:00,46.4,39.6,29.96,SSE,157,5.3,-999.0,77,-99.99,,,0.04,,2017-04-25 16:39:00,
2017-04-25 10:44:00,47.3,40.1,29.96,South,180,4.2,-999.0,76,-99.99,,,0.04,,2017-04-25 16:44:00,
2017-04-25 10:49:00,47.8,40.3,29.96,East,90,3.7,-999.0,75,-99.99,,,0.04,,2017-04-25 16:49:00,
2017-04-25 10:54:00,48.0,40.5,29.96,East,90,3.2,-999.0,75,-99.99,,,0.04,,2017-04-25 16:54:00,
2017-04-25 10:59:00,47.7,40.8,29.96,West,270,3.7,-999.0,77,-99.99,,,0.04,,2017-04-25 16:59:00,
2017-04-25 11:04:00,45.5,39.0,29.96,South,180,3.7,-999.0,78,-99.99,,,0.05,,2017-04-25 17:04:00,
2017-04-25 11:10:00,45.1,38.7,29.96,SW,225,0.0,-999.0,78,-99.99,,,0.05,,2017-04-25 17:10:00,
2017-04-25 11:15:00,45.5,39.0,29.96,SSE,157,1.7,-999.0,78,-99.99,,,0.05,,2017-04-25 17:15:00,
2017-04-25 11:21:00,47.1,39.9,29.96,ESE,112,2.7,-999.0,76,-99.99,,,0.05,,2017-04-25 17:21:00,
2017-04-25 11:26:00,46.9,40.1,29.96,NE,45,1.1,-999.0,77,-99.99,,,0.05,,2017-04-25 17:26:00,
2017-04-25 11:32:00,47.7,40.5,29.96,West,270,4.2,-999.0,76,-99.99,,,0.05,,2017-04-25 17:32:00,
2017-04-25 11:37:00,45.5,38.7,29.96,SSE,157,5.8,-999.0,77,-99.99,,,0.06,,2017-04-25 17:37:00,
2017-04-25 11:42:00,43.9,38.1,29.96,SSW,202,2.7,-999.0,80,-99.99,,,0.06,,2017-04-25 17:42:00,
2017-04-25 11:47:00,44.8,39.3,29.96,ESE,112,2.2,-999.0,81,-99.99,,,0.06,,2017-04-25 17:47:00,
2017-04-25 11:53:00,46.4,40.2,29.96,South,180,4.2,-999.0,79,-99.99,,,0.06,,2017-04-25 17:53:00,
2017-04-25 11:58:00,46.0,39.5,29.95,SSE,157,3.7,-999.0,78,-99.99,,,0.06,,2017-04-25 17:58:00,
2017-04-25 12:00:00,46.0,39.5,29.95,East,90,4.2,-999.0,78,-99.99,,,0.06,,2017-04-25 18:00:00,
2017-04-25 12:05:00,47.3,41.1,29.95,SSE,157,3.2,-999.0,79,-99.99,,,0.06,,2017-04-25 18:05:00,
2017-04-25 12:11:00,49.8,42.5,29.95,South,180,4.7,-999.0,76,-99.99,,,0.06,,2017-04-25 18:11:00,
2017-04-25 12:17:00,50.0,42.7,29.95,ESE,112,2.7,-999.0,76,-99.99,,,0.06,,2017-04-25 18:17:00,
2017-04-25 12:22:00,50.0,41.7,29.95,SSE,157,4.7,-999.0,73,-99.99,,,0.06,,2017-04-25 18:22:00,
2017-04-25 12:28:00,51.4,41.9,29.95,SW,225,5.8,-999.0,70,-99.99,,,0.06,,2017-04-25 18:28:00,
2017-04-25 12:33:00,50.5,40.3,29.95,WNW,292,4.7,-999.0,68,-99.99,,,0.06,,2017-04-25 18:33:00,
2017-04-25 12:40:00,48.2,40.0,29.95,SSW,202,7.8,-999.0,73,-99.99,,,0.06,,2017-04-25 18:40:00,
2017-04-25 12:45:00,46.8,39.0,29.95,South,180,5.8,-999.0,74,-99.99,,,0.06,,2017-04-25 18:45:00,
2017-04-25 12:51:00,46.2,39.1,29.95,SW,225,2.7,-999.0,76,-99.99,,,0.06,,2017-04-25 18:51:00,
2017-04-25 12:56:00,45.5,39.0,29.95,West,270,5.3,-999.0,78,-99.99,,,0.07,,2017-04-25 18:56:00,
2017-04-25 13:01:00,44.2,38.1,29.96,SSW,202,3.2,-999.0,79,-99.99,,,0.08,,2017-04-25 19:01:00,
2017-04-25 13:07:00,44.4,38.6,29.96,SSE,157,3.7,-999.0,80,-99.99,,,0.08,,2017-04-25 19:07:00,
2017-04-25 13:12:00,45.0,38.9,29.95,SSE,157,2.2,-999.0,79,-99.99,,,0.08,,2017-04-25 19:12:00,
2017-04-25 13:18:00,45.5,39.0,29.95,NNE,22,3.2,-999.0,78,-99.99,,,0.08,,2017-04-25 19:18:00,
2017-04-25 13:23:00,45.9,39.1,29.96,West,270,2.7,-999.0,77,-99.99,,,0.08,,2017-04-25 19:23:00,